Location: Binningen
(47.7924°N, 8.7261°E)
Time: 08:21:20
(UTC+00:00)

Gbstr 26 Del rocket - Pass Details

Date: 17 May 2021
Orbit: 493 x 1263 km, 51.8° (Epoch: 20 June)

Event Time Altitude Azimuth Distance (km) Brightness Sun altitude
Rises 19:53:03 0° 290° (WNW) 4,205 8.8 -8.1°
Reaches altitude 10° 19:56:02 10° 292° (WNW) 3,200 8.0 -8.5°
Maximum altitude 20:03:59 82° 20° (NNE) 1,144 4.4 -9.5°
Drops below altitude 10° 20:10:46 10° 109° (ESE) 2,753 5.8 -10.3°
Enters shadow 20:10:55 - 109° (ESE) 2,802 5.9 -10.3°
